When you browse on this site, cookies collect data to enhance your experience and personalize the content and advertising you see.
Visit our Privacy Policy to learn more. By continuing to use the site, you agree to this use of cookies and data.
  • In Deutschland
  • Länderverzeichnis
  • Für 7 Tage
  • Wassertemperatur
  • Wetterkarte
  • Widgets
  • user-avatar
    Anmelden

    Stündliche Wetter Dakka

    Heute, 22 Januar, Mittwoch

    Zeit Temperatur Niederschläge Wind Luftdruck Luftfeuchtigkeit
    00:00 +17°C° 0 mm 2 m/S 762 mmHg 46%
    01:00 +17°C° 0 mm 2 m/S 762 mmHg 48%
    02:00 +17°C° 0 mm 2 m/S 762 mmHg 49%
    03:00 +16°C° 0 mm 3 m/S 762 mmHg 51%
    04:00 +16°C° 0 mm 2 m/S 762 mmHg 53%
    05:00 +15°C° 0 mm 2 m/S 762 mmHg 55%
    06:00 +15°C° 0 mm 2 m/S 762 mmHg 60%
    07:00 +16°C° 0 mm 2 m/S 762 mmHg 56%
    08:00 +18°C° 0 mm 2 m/S 763 mmHg 53%
    09:00 +20°C° 0 mm 1 m/S 764 mmHg 49%
    10:00 +21°C° 0 mm 2 m/S 763 mmHg 42%
    11:00 +24°C° 0 mm 2 m/S 763 mmHg 35%
    12:00 +25°C° 0 mm 2 m/S 763 mmHg 28%
    13:00 +26°C° 0 mm 3 m/S 762 mmHg 27%
    14:00 +26°C° 0 mm 3 m/S 761 mmHg 25%
    15:00 +27°C° 0 mm 3 m/S 760 mmHg 24%
    16:00 +25°C° 0 mm 3 m/S 760 mmHg 28%
    17:00 +23°C° 0 mm 2 m/S 760 mmHg 31%
    18:00 +22°C° 0 mm 1 m/S 760 mmHg 38%
    19:00 +21°C° 0 mm 1 m/S 760 mmHg 38%
    20:00 +21°C° 0 mm 1 m/S 761 mmHg 38%
    21:00 +20°C° 0 mm 1 m/S 761 mmHg 38%
    22:00 +20°C° 0 mm 1 m/S 760 mmHg 39%
    23:00 +19°C° 0 mm 1 m/S 760 mmHg 40%

    Morgen, 23 Januar, Donnerstag

    Zeit Temperatur Niederschläge Wind Luftdruck Luftfeuchtigkeit
    00:00 +19°C° 0 mm 1 m/S 760 mmHg 40%
    01:00 +19°C° 0 mm 1 m/S 760 mmHg 41%
    02:00 +18°C° 0 mm 1 m/S 759 mmHg 41%
    03:00 +18°C° 0 mm 1 m/S 759 mmHg 41%
    04:00 +18°C° 0 mm 1 m/S 759 mmHg 41%
    05:00 +18°C° 0 mm 1 m/S 759 mmHg 42%
    06:00 +16°C° 0 mm 0 m/S 759 mmHg 42%
    07:00 +17°C° 0 mm 0 m/S 760 mmHg 40%
    08:00 +18°C° 0 mm 0 m/S 761 mmHg 39%
    09:00 +19°C° 0 mm 0 m/S 761 mmHg 37%
    10:00 +20°C° 0 mm 0 m/S 761 mmHg 35%
    11:00 +22°C° 0 mm 0 m/S 760 mmHg 33%
    12:00 +23°C° 0 mm 0 m/S 760 mmHg 31%
    13:00 +25°C° 0 mm 1 m/S 759 mmHg 32%
    14:00 +26°C° 0 mm 2 m/S 758 mmHg 32%
    15:00 +26°C° 0 mm 3 m/S 758 mmHg 32%
    16:00 +25°C° 0 mm 2 m/S 758 mmHg 35%
    17:00 +23°C° 0 mm 2 m/S 757 mmHg 38%
    18:00 +21°C° 0 mm 2 m/S 757 mmHg 41%
    19:00 +21°C° 0 mm 2 m/S 758 mmHg 42%
    20:00 +21°C° 0 mm 1 m/S 759 mmHg 44%
    21:00 +20°C° 0 mm 1 m/S 759 mmHg 45%
    22:00 +20°C° 0 mm 1 m/S 759 mmHg 45%
    23:00 +20°C° 0 mm 1 m/S 759 mmHg 44%

    übermorgen, 24 Januar, Freitag

    Zeit Temperatur Niederschläge Wind Luftdruck Luftfeuchtigkeit
    00:00 +19°C° 0 mm 2 m/S 759 mmHg 44%
    01:00 +18°C° 0 mm 2 m/S 759 mmHg 44%
    02:00 +17°C° 0 mm 2 m/S 759 mmHg 45%
    03:00 +17°C° 0 mm 2 m/S 759 mmHg 45%
    04:00 +16°C° 0 mm 2 m/S 759 mmHg 46%
    05:00 +16°C° 0 mm 2 m/S 759 mmHg 48%
    06:00 +15°C° 0 mm 2 m/S 759 mmHg 50%
    07:00 +17°C° 0 mm 2 m/S 760 mmHg 48%
    08:00 +18°C° 0 mm 2 m/S 761 mmHg 46%
    09:00 +20°C° 0 mm 2 m/S 761 mmHg 44%
    10:00 +21°C° 0 mm 2 m/S 761 mmHg 39%
    11:00 +24°C° 0 mm 2 m/S 761 mmHg 34%
    12:00 +25°C° 0 mm 2 m/S 760 mmHg 29%
    13:00 +25°C° 0 mm 3 m/S 760 mmHg 28%
    14:00 +26°C° 0 mm 3 m/S 759 mmHg 27%
    15:00 +26°C° 0 mm 4 m/S 758 mmHg 26%
    16:00 +24°C° 0 mm 3 m/S 758 mmHg 29%
    17:00 +22°C° 0 mm 3 m/S 758 mmHg 32%
    18:00 +20°C° 0 mm 2 m/S 758 mmHg 36%
    19:00 +20°C° 0 mm 2 m/S 758 mmHg 37%
    20:00 +19°C° 0 mm 2 m/S 759 mmHg 38%
    21:00 +18°C° 0 mm 2 m/S 760 mmHg 39%
    22:00 +18°C° 0 mm 2 m/S 759 mmHg 40%
    23:00 +17°C° 0 mm 2 m/S 759 mmHg 42%

    25 Januar, Samstag

    Zeit Temperatur Niederschläge Wind Luftdruck Luftfeuchtigkeit
    00:00 +17°C° 0 mm 2 m/S 759 mmHg 43%
    01:00 +16°C° 0 mm 2 m/S 759 mmHg 45%
    02:00 +16°C° 0 mm 1 m/S 759 mmHg 46%
    03:00 +15°C° 0 mm 1 m/S 759 mmHg 48%
    04:00 +15°C° 0 mm 1 m/S 759 mmHg 49%
    05:00 +15°C° 0 mm 1 m/S 759 mmHg 51%
    06:00 +13°C° 0 mm 0 m/S 759 mmHg 53%
    07:00 +15°C° 0 mm 0 m/S 759 mmHg 49%
    08:00 +18°C° 0 mm 1 m/S 760 mmHg 46%
    09:00 +20°C° 0 mm 1 m/S 761 mmHg 42%
    10:00 +22°C° 0 mm 1 m/S 760 mmHg 38%
    11:00 +23°C° 0 mm 1 m/S 760 mmHg 35%
    12:00 +25°C° 0 mm 1 m/S 759 mmHg 31%
    13:00 +25°C° 0 mm 1 m/S 759 mmHg 30%
    14:00 +25°C° 0 mm 1 m/S 758 mmHg 29%
    15:00 +26°C° 0 mm 2 m/S 757 mmHg 27%
    16:00 +24°C° 0 mm 2 m/S 757 mmHg 31%
    17:00 +23°C° 0 mm 2 m/S 757 mmHg 35%
    18:00 +20°C° 0 mm 2 m/S 756 mmHg 39%
    19:00 +20°C° 0 mm 2 m/S 757 mmHg 40%
    20:00 +19°C° 0 mm 2 m/S 758 mmHg 41%
    21:00 +19°C° 0 mm 2 m/S 758 mmHg 43%
    22:00 +19°C° 0 mm 1 m/S 758 mmHg 44%
    23:00 +19°C° 0 mm 1 m/S 758 mmHg 45%

    26 Januar, Sonntag

    Zeit Temperatur Niederschläge Wind Luftdruck Luftfeuchtigkeit
    00:00 +18°C° 0 mm 1 m/S 758 mmHg 46%
    01:00 +18°C° 0 mm 1 m/S 758 mmHg 48%
    02:00 +16°C° 0 mm 1 m/S 757 mmHg 50%
    03:00 +16°C° 0 mm 1 m/S 757 mmHg 51%
    04:00 +15°C° 0 mm 1 m/S 757 mmHg 53%
    05:00 +14°C° 0 mm 0 m/S 757 mmHg 54%
    06:00 +14°C° 0 mm 0 m/S 757 mmHg 56%
    07:00 +15°C° 0 mm 0 m/S 758 mmHg 52%
    08:00 +19°C° 0 mm 1 m/S 758 mmHg 49%
    09:00 +20°C° 0 mm 1 m/S 759 mmHg 45%
    10:00 +22°C° 0 mm 1 m/S 759 mmHg 41%
    11:00 +24°C° 0 mm 1 m/S 758 mmHg 37%
    12:00 +25°C° 0 mm 1 m/S 758 mmHg 33%
    13:00 +26°C° 0 mm 2 m/S 757 mmHg 32%
    14:00 +26°C° 0 mm 2 m/S 757 mmHg 31%
    15:00 +26°C° 0 mm 3 m/S 756 mmHg 29%
    16:00 +25°C° 0 mm 3 m/S 756 mmHg 33%
    17:00 +23°C° 0 mm 2 m/S 756 mmHg 37%
    18:00 +21°C° 0 mm 2 m/S 756 mmHg 41%
    19:00 +20°C° 0 mm 2 m/S 757 mmHg 42%
    20:00 +21°C° 0 mm 1 m/S 757 mmHg 43%
    21:00 +20°C° 0 mm 1 m/S 757 mmHg 45%
    22:00 +20°C° 0 mm 1 m/S 757 mmHg 46%
    23:00 +19°C° 0 mm 1 m/S 757 mmHg 47%

    27 Januar, Montag

    Zeit Temperatur Niederschläge Wind Luftdruck Luftfeuchtigkeit
    00:00 +19°C° 0 mm 1 m/S 757 mmHg 49%
    01:00 +18°C° 0 mm 1 m/S 757 mmHg 50%
    02:00 +18°C° 0 mm 1 m/S 756 mmHg 52%
    03:00 +16°C° 0 mm 1 m/S 756 mmHg 53%
    04:00 +16°C° 0 mm 1 m/S 756 mmHg 56%
    05:00 +15°C° 0 mm 1 m/S 756 mmHg 58%
    06:00 +14°C° 0 mm 0 m/S 757 mmHg 60%
    07:00 +18°C° 0 mm 1 m/S 757 mmHg 57%
    08:00 +19°C° 0 mm 1 m/S 758 mmHg 53%
    09:00 +20°C° 0 mm 2 m/S 759 mmHg 49%
    10:00 +21°C° 0 mm 2 m/S 758 mmHg 45%
    11:00 +24°C° 0 mm 2 m/S 758 mmHg 41%
    12:00 +25°C° 0 mm 3 m/S 757 mmHg 38%
    13:00 +26°C° 0 mm 3 m/S 757 mmHg 36%
    14:00 +26°C° 0 mm 3 m/S 756 mmHg 34%
    15:00 +27°C° 0 mm 3 m/S 756 mmHg 32%
    16:00 +25°C° 0 mm 3 m/S 756 mmHg 36%
    17:00 +24°C° 0 mm 2 m/S 755 mmHg 40%
    18:00 +21°C° 0 mm 2 m/S 755 mmHg 43%
    19:00 +21°C° 0 mm 2 m/S 756 mmHg 44%
    20:00 +20°C° 0 mm 2 m/S 756 mmHg 45%
    21:00 +21°C° 0 mm 1 m/S 757 mmHg 46%
    22:00 +20°C° 0 mm 1 m/S 757 mmHg 47%
    23:00 +20°C° 0 mm 1 m/S 757 mmHg 49%
    Mehr zeigen